Find Yaogan 31 hao 02 zu 03 xing

NORAD ID: 47536 Int'l Des: 2021-007 Owner: ZLZB Country: CN Constellation: yaogan operational
LEO

Aktuelle Ansicht

3D-Globus wird geladen...

Über Yaogan 31 hao 02 zu 03 xing

Beschreibung wird geladen...

Nächste Überflüge

Passes for default location (London). Set your location on the main map for personalized predictions.

Höhenverlauf

Loading altitude history...

Zweizeiliger Elementsatz

1 47536U 21007E 26151.17264590 -.00000154 00000-0 -98722-4 0 9998
2 47536 63.4017 185.8699 0174580 0.5790 359.5407 13.45445714261921
Epoch: 31. Mai 2026 • Age: 7 hours

Aktueller Status

Höhe 962.7 km
Geschwindigkeit 7.43 km/s
Subsatellitenpunkt 11.64°N, 131.9°E
Startdatum 29. Jan. 2021
Alter 5.3 years
Typ military

Technische Details

Klassifizierung Payload
Masse 500.00 kg
Trockenmasse 500.00 kg
Gesamtmasse 500.00 kg
Länge 0.50 m
Durchmesser 0.50 m
Spannweite 1.00 m
Form Box + 2 Pan
Hersteller DFHZ
Phasenstatus In Orbit
Besitzer/Staat ZLZB/CN

Most Searched